Location: Prague
(50.0830°N, 14.4670°E)
Time: 00:44:19
(UTC+01:00)

HuskySat-1 - Pass Details

Date: 04 December 2021
Orbit: 439 x 453 km, 51.6° (Epoch: 25 January)

Event Time Altitude Azimuth Distance (km) Brightness Sun altitude
Rises 17:58:50 0° 233° (SW) 2,470 ? -17.9°
Reaches altitude 10° 18:01:01 10° 228° (SW) 1,597 ? -18.3°
Maximum altitude 18:04:30 49° 153° (SSE) 594 ? -18.8°
Enters shadow 18:04:52 47° 131° (SE) 614 ? -18.9°
